When you browse on this site, cookies collect data to enhance your experience and personalize the content and advertising you see.
Visit our Privacy Policy to learn more. By continuing to use the site, you agree to this use of cookies and data.
  • In Hungary
  • List of Countries
  • For 7 days
  • Water Temperature
  • Satellite Maps
  • Weather Map
  • News
  • Weather Widgets
  • user-avatar
    Login

    Hourly Weather Qiaojiang

    Today, 22 April, Monday

    Time Temperature Precipitation Wind Pressure Humidity
    00:00 +20°C° 0 mm 1 mps 743 mmHg 82%
    01:00 +19°C° 0 mm 2 mps 742 mmHg 83%
    02:00 +19°C° 1 mm 2 mps 742 mmHg 86%
    03:00 +19°C° 1 mm 2 mps 742 mmHg 88%
    04:00 +19°C° 1 mm 2 mps 742 mmHg 90%
    05:00 +21°C° 0.3 mm 1 mps 742 mmHg 88%
    06:00 +21°C° 0.3 mm 1 mps 742 mmHg 86%
    07:00 +22°C° 0.3 mm 1 mps 742 mmHg 84%
    08:00 +24°C° 0.2 mm 1 mps 743 mmHg 79%
    09:00 +26°C° 0.2 mm 1 mps 743 mmHg 74%
    10:00 +27°C° 0.2 mm 1 mps 743 mmHg 68%
    11:00 +28°C° 0.1 mm 1 mps 742 mmHg 68%
    12:00 +28°C° 0.1 mm 1 mps 742 mmHg 68%
    13:00 +28°C° 0.1 mm 2 mps 741 mmHg 68%
    14:00 +28°C° 0 mm 2 mps 741 mmHg 68%
    15:00 +28°C° 0 mm 1 mps 741 mmHg 68%
    16:00 +28°C° 0 mm 1 mps 740 mmHg 68%
    17:00 +27°C° 0 mm 1 mps 740 mmHg 73%
    18:00 +26°C° 0 mm 1 mps 740 mmHg 79%
    19:00 +25°C° 0 mm 1 mps 741 mmHg 84%
    20:00 +24°C° 0 mm 1 mps 741 mmHg 86%
    21:00 +24°C° 0 mm 1 mps 741 mmHg 88%
    22:00 +23°C° 0 mm 1 mps 742 mmHg 90%
    23:00 +23°C° 0.2 mm 1 mps 742 mmHg 90%

    Tomorrow, 23 April, Tuesday

    Time Temperature Precipitation Wind Pressure Humidity
    00:00 +23°C° 0.2 mm 1 mps 741 mmHg 90%
    01:00 +23°C° 0.2 mm 1 mps 741 mmHg 91%
    02:00 +23°C° 0.1 mm 1 mps 741 mmHg 91%
    03:00 +23°C° 0.1 mm 1 mps 741 mmHg 91%
    04:00 +23°C° 0.1 mm 1 mps 740 mmHg 92%
    05:00 +23°C° 0.3 mm 1 mps 741 mmHg 90%
    06:00 +24°C° 0.3 mm 1 mps 741 mmHg 88%
    07:00 +23°C° 0.3 mm 0 mps 741 mmHg 85%
    08:00 +26°C° 0.3 mm 1 mps 742 mmHg 80%
    09:00 +28°C° 0.3 mm 1 mps 742 mmHg 75%
    10:00 +29°C° 0.3 mm 1 mps 742 mmHg 70%
    11:00 +29°C° 0.1 mm 1 mps 742 mmHg 71%
    12:00 +29°C° 0.1 mm 1 mps 741 mmHg 73%
    13:00 +29°C° 0.1 mm 1 mps 741 mmHg 74%
    14:00 +29°C° 0 mm 1 mps 740 mmHg 74%
    15:00 +29°C° 0 mm 1 mps 740 mmHg 73%
    16:00 +30°C° 0 mm 1 mps 739 mmHg 73%
    17:00 +28°C° 0.3 mm 1 mps 739 mmHg 78%
    18:00 +27°C° 0.3 mm 1 mps 739 mmHg 83%
    19:00 +26°C° 0.3 mm 1 mps 740 mmHg 87%
    20:00 +26°C° 0.6 mm 1 mps 740 mmHg 88%
    21:00 +26°C° 0.6 mm 1 mps 741 mmHg 89%
    22:00 +26°C° 0.6 mm 1 mps 741 mmHg 89%
    23:00 +25°C° 0.3 mm 1 mps 741 mmHg 89%

    Day after tomorrow, 24 April, Wednesday

    Time Temperature Precipitation Wind Pressure Humidity
    00:00 +25°C° 0.3 mm 1 mps 740 mmHg 89%
    01:00 +23°C° 0.3 mm 0 mps 740 mmHg 90%
    02:00 +25°C° 0.1 mm 1 mps 740 mmHg 90%
    03:00 +25°C° 0.1 mm 1 mps 739 mmHg 91%
    04:00 +25°C° 0.1 mm 1 mps 739 mmHg 92%
    05:00 +25°C° 0.3 mm 1 mps 740 mmHg 90%
    06:00 +26°C° 0.3 mm 1 mps 740 mmHg 89%
    07:00 +26°C° 0.3 mm 1 mps 740 mmHg 87%
    08:00 +28°C° 0.1 mm 1 mps 741 mmHg 82%
    09:00 +29°C° 0.1 mm 1 mps 741 mmHg 78%
    10:00 +29°C° 0.1 mm 0 mps 742 mmHg 73%
    11:00 +31°C° 0.1 mm 1 mps 741 mmHg 71%
    12:00 +32°C° 0.1 mm 1 mps 741 mmHg 68%
    13:00 +32°C° 0.1 mm 1 mps 740 mmHg 66%
    14:00 +33°C° 0.1 mm 1 mps 740 mmHg 65%
    15:00 +33°C° 0.1 mm 1 mps 739 mmHg 64%
    16:00 +33°C° 0.1 mm 1 mps 739 mmHg 63%
    17:00 +31°C° 0.4 mm 1 mps 739 mmHg 70%
    18:00 +30°C° 0.4 mm 1 mps 740 mmHg 77%
    19:00 +28°C° 0.4 mm 1 mps 740 mmHg 83%
    20:00 +28°C° 0.3 mm 1 mps 741 mmHg 86%
    21:00 +27°C° 0.3 mm 1 mps 741 mmHg 88%
    22:00 +26°C° 0.3 mm 1 mps 741 mmHg 91%
    23:00 +26°C° 0.1 mm 1 mps 741 mmHg 91%

    25 April, Thursday

    Time Temperature Precipitation Wind Pressure Humidity
    00:00 +24°C° 0.1 mm 0 mps 741 mmHg 91%
    01:00 +24°C° 0.1 mm 0 mps 741 mmHg 91%
    02:00 +24°C° 1.3 mm 0 mps 741 mmHg 91%
    03:00 +23°C° 1.3 mm 0 mps 741 mmHg 92%
    04:00 +25°C° 1.3 mm 1 mps 741 mmHg 92%
    05:00 +24°C° 0 mm 0 mps 741 mmHg 89%
    06:00 +25°C° 0 mm 0 mps 741 mmHg 86%
    07:00 +26°C° 0 mm 0 mps 742 mmHg 83%
    08:00 +28°C° 0 mm 0 mps 742 mmHg 75%
    09:00 +30°C° 0 mm 0 mps 742 mmHg 67%
    10:00 +32°C° 0 mm 0 mps 742 mmHg 58%
    11:00 +33°C° 0 mm 0 mps 742 mmHg 54%
    12:00 +34°C° 0 mm 0 mps 741 mmHg 49%
    13:00 +35°C° 0 mm 0 mps 740 mmHg 44%
    14:00 +35°C° 0.1 mm 0 mps 740 mmHg 45%
    15:00 +34°C° 0.1 mm 0 mps 740 mmHg 46%
    16:00 +33°C° 0.1 mm 0 mps 739 mmHg 46%
    17:00 +31°C° 0.1 mm 0 mps 740 mmHg 53%
    18:00 +32°C° 0.1 mm 1 mps 740 mmHg 59%
    19:00 +30°C° 0.1 mm 1 mps 740 mmHg 66%
    20:00 +29°C° 0.1 mm 1 mps 740 mmHg 69%
    21:00 +28°C° 0.1 mm 1 mps 741 mmHg 72%
    22:00 +28°C° 0.1 mm 1 mps 741 mmHg 75%
    23:00 +28°C° 0.2 mm 1 mps 741 mmHg 76%

    26 April, Friday

    Time Temperature Precipitation Wind Pressure Humidity
    00:00 +27°C° 0.2 mm 1 mps 740 mmHg 78%
    01:00 +25°C° 0.2 mm 0 mps 740 mmHg 80%
    02:00 +25°C° 0 mm 0 mps 740 mmHg 80%
    03:00 +24°C° 0 mm 0 mps 740 mmHg 81%
    04:00 +24°C° 0 mm 0 mps 740 mmHg 81%
    05:00 +25°C° 0.2 mm 0 mps 740 mmHg 78%
    06:00 +27°C° 0.2 mm 0 mps 741 mmHg 74%
    07:00 +28°C° 0.2 mm 0 mps 742 mmHg 70%
    08:00 +30°C° 0.2 mm 0 mps 742 mmHg 62%
    09:00 +33°C° 0.2 mm 0 mps 742 mmHg 53%
    10:00 +35°C° 0.2 mm 0 mps 742 mmHg 44%
    11:00 +36°C° 0 mm 0 mps 742 mmHg 42%
    12:00 +37°C° 0 mm 0 mps 741 mmHg 39%
    13:00 +37°C° 0 mm 0 mps 741 mmHg 37%
    14:00 +39°C° 0.1 mm 1 mps 740 mmHg 41%
    15:00 +37°C° 0.1 mm 2 mps 740 mmHg 45%
    16:00 +36°C° 0.1 mm 2 mps 740 mmHg 49%
    17:00 +34°C° 0.4 mm 2 mps 740 mmHg 56%
    18:00 +32°C° 0.4 mm 2 mps 741 mmHg 62%
    19:00 +30°C° 0.4 mm 2 mps 741 mmHg 69%
    20:00 +29°C° 0.6 mm 3 mps 742 mmHg 72%
    21:00 +29°C° 0.6 mm 3 mps 742 mmHg 75%
    22:00 +28°C° 0.6 mm 3 mps 742 mmHg 78%
    23:00 +27°C° 0 mm 3 mps 742 mmHg 81%

    27 April, Saturday

    Time Temperature Precipitation Wind Pressure Humidity
    00:00 +26°C° 0 mm 3 mps 742 mmHg 83%
    01:00 +25°C° 0 mm 2 mps 743 mmHg 86%
    02:00 +25°C° 0 mm 2 mps 743 mmHg 87%
    03:00 +24°C° 0 mm 2 mps 742 mmHg 87%
    04:00 +24°C° 0 mm 2 mps 742 mmHg 88%
    05:00 +24°C° 0 mm 2 mps 743 mmHg 85%
    06:00 +25°C° 0 mm 2 mps 743 mmHg 83%
    07:00 +25°C° 0 mm 2 mps 744 mmHg 80%
    08:00 +27°C° 0 mm 2 mps 744 mmHg 74%
    09:00 +30°C° 0 mm 1 mps 744 mmHg 67%
    10:00 +32°C° 0 mm 1 mps 744 mmHg 60%
    11:00 +32°C° 0.3 mm 2 mps 743 mmHg 59%
    12:00 +34°C° 0.3 mm 2 mps 742 mmHg 58%
    13:00 +34°C° 0.3 mm 2 mps 742 mmHg 57%
    14:00 +34°C° 0.4 mm 3 mps 741 mmHg 58%
    15:00 +34°C° 0.4 mm 3 mps 741 mmHg 60%
    16:00 +33°C° 0.4 mm 3 mps 740 mmHg 61%
    17:00 +31°C° 0.6 mm 3 mps 740 mmHg 67%
    18:00 +30°C° 0.6 mm 2 mps 740 mmHg 73%
    19:00 +28°C° 0.6 mm 1 mps 740 mmHg 80%
    20:00 +28°C° 0 mm 1 mps 741 mmHg 82%
    21:00 +27°C° 0 mm 1 mps 741 mmHg 84%
    22:00 +27°C° 0 mm 1 mps 741 mmHg 85%
    23:00 +26°C° 0 mm 1 mps 740 mmHg 87%
    Show more